Regional Weather Roundup
Issued by NWS Newport/Morehead, NC

Current Version | Previous Version | Graphics & Text | Print | Product List | Glossary Off
Versions: 1 2 3 4 5 6 7 8 9 10 11 12 13 14 15 16 17 18 19 20 21 22 23 24 25 26 27 28 29 30 31 32 33 34 35 36 37 38 39 40 41 42 43 44 45 46 47 48 49 50

000
ASUS42 KMHX 250822
RWRMHX
WEATHER ROUNDUP FOR EASTERN NORTH CAROLINA
NATIONAL WEATHER SERVICE NEWPORT/MOREHEAD CITY NC
400 AM EDT FRI JUL 25 2014

NOTE: "FAIR" INDICATES FEW OR NO CLOUDS BELOW 12,000 FEET
WITH NO SIGNIFICANT WEATHER AND/OR OBSTRUCTIONS TO VISIBILITY

NCZ015>017-031-032-045>047-102-103-250900-
NORTH COAST

CITY           SKY/WX    TMP DP  RH WIND       PRES   REMARKS
EDENTON        PTCLDY    68  67  97 N6        29.95S
ELIZABETH CITY PTCLDY    69  67  93 NW8       29.95S
KITTY HAWK     PTSUNNY   71  69  93 NW5       29.93R
MANTEO         NOT AVBL

$$

NCZ045>047-081-094-103-104-250900-
CENTRAL COAST

CITY           SKY/WX    TMP DP  RH WIND       PRES   REMARKS
FRISCO         LGT RAIN  73  73 100 NW3       29.92R
SWANQUARTER      N/A     70 N/A N/A N2G8      29.91R

$$

NCZ095-097-098-100-101-250900-
SOUTHERN COAST

CITY           SKY/WX    TMP DP  RH WIND       PRES   REMARKS
BEAUFORT       MOCLDY    74  70  87 W3        29.93S
CEDAR ISLAND     N/A     73 N/A N/A NW14      29.97S
JACKSONVILLE   MOCLDY    70  70 100 NW9       29.95R
NEWPORT        NOT AVBL
PINEY ISLAND   CLOUDY    73  73 100 NW9       29.93R
WILMINGTON     CLOUDY    74  72  93 CALM      29.95R


$$

NCZ011>013-027>030-043-044-078>080-089-090>093-098-250900-
COASTAL PLAIN

CITY           SKY/WX    TMP DP  RH WIND       PRES   REMARKS
AHOSKIE        CLOUDY    68  67  96 CALM      29.98S
CLINTON        CLOUDY    69  69 100 NE3       29.98R
ELIZABETHTOWN  CLOUDY    70  70 100 CALM      29.97R
GOLDSBORO      MOCLDY    68  66  94 N5        29.96R
GREENVILLE     CLOUDY    68  68 100 N3        29.99S FOG
HAVELOCK       PTCLDY    68  66  93 CALM      29.95R
KENANSVILLE    CLOUDY    68  67  95 CALM      29.98R
KINSTON        CLOUDY    67  67  99 CALM      29.99R
NEW BERN       CLOUDY    70  66  88 NW7       29.97R
RICHLANDS      CLOUDY    70  66  88 NW5       29.97R
ROANOKE RAPIDS NOT AVBL
ROCKY MOUNT    MOCLDY    68  66  93 N5        29.98R
WASHINGTON     CLOUDY    67  67  98 N7        29.97R
WHITEVILLE     CLOUDY    73  72  95 CALM      29.95S FOG

$$

AMZ130-135-150-152-154-156-158-170-250-252-270-ANZ085-086-088-633-658-670-250900-
MARINE OBSERVATIONS

STATION/POSITION TIME  TEMP    WIND        PRES    WAVE   SWELL
                       AIR SEA DIR/SP/G            HT/PER HT/PER
                 (UTC) (F)     (DEG/KT/KT) (MB)    (FT/S) (FT/S)
CHESAPEAKE LIGHT NOT AVBL
BUOY 44014       0800   75 78  360/ 12/ 14 1012.7    3/ 7   2/ 7
DUCK             0800   72 75  320/ 12/ 15 1012.6
2E DUCK          0800                        N/A     2/ 7
OREGON INLET     0800   74 77  290/  7/  9 1013.2
BUOY 44095       0800      77                N/A     3/ 7
20E OREGON INLET NOT AVBL
HATTERAS CG      0800   75 80  290/ 12/ 13 1013.5
DIAMOND BUOY     0800          VRB 14/ 17  1012.0    3/ 7   2/ 7
CAPE LOOKOUT     0800   74     260/  4/  4 1013.3
BEAUFORT LAB     0800   72 80  320/  2/  2 1013.4
30 SE NEW RIVER  0800   77 81  140/  6/  8 1013.8    4/ 6   3/ 6
5 SE WRIGHTSVILL 0800   74 81  230/ 12/ 14   N/A
BUOY 41002       0746   82 82  240/ 21/ 25 1016.0    6/ 6
BUOY 41004       0800   83 83  220/ 16/ 19 1013.1    5/ 5   2/ 9

$$



USA.gov is the U.S. government's official web portal to all federal, state and local government web resources and services.